This is the latest recevied weather packets stored in our database for station/object OE5RBO. If no packets are shown the sender has not sent any weather packets the latest 10 day(s).
| Time | Temp. | Humidity | Pressure | Rain* | Wind** | Luminosity | Snow |
|---|---|---|---|---|---|---|---|
| 1787806112 | 15.56° C | 99% | 1016.3 hPa | 0 mm | - | - | - |
| 1787804911 | 15.56° C | 99% | 1016.3 hPa | 0 mm | - | - | - |
| 1787804310 | 16.11° C | 99% | 1016.1 hPa | 0 mm | - | - | - |
| 1787803710 | 15.56° C | 99% | 1016.3 hPa | 0 mm | - | - | - |
| 1787803110 | 16.11° C | 99% | 1016.3 hPa | 0 mm | - | - | - |
| 1787802509 | 16.11° C | 99% | 1016.1 hPa | 0 mm | - | - | - |
| 1787801309 | 15.56° C | 98% | 1015.8 hPa | 0 mm | - | - | - |
| 1787800708 | 16.11° C | 98% | 1015.7 hPa | 0 mm | - | - | - |
| 1787800108 | 16.11° C | 98% | 1015.8 hPa | 0 mm | - | - | - |
| 1787799508 | 16.11° C | 98% | 1015.8 hPa | 0 mm | - | - | - |
| 1787798307 | 16.67° C | 98% | 1016.1 hPa | 0 mm | - | - | - |
| 1787797106 | 16.67° C | 98% | 1016.1 hPa | 0 mm | - | - | - |
| 1787796506 | 16.67° C | 98% | 1015.8 hPa | 0 mm | - | - | - |
| 1787795905 | 16.67° C | 98% | 1015.7 hPa | 0 mm | - | - | - |
| 1787795305 | 16.67° C | 97% | 1015.7 hPa | 0 mm | - | - | - |
| 1787794705 | 16.67° C | 97% | 1015.7 hPa | 0 mm | - | - | - |
| 1787794104 | 17.22° C | 97% | 1015.7 hPa | 0 mm | - | - | - |
| 1787793504 | 16.67° C | 97% | 1015.7 hPa | 0 mm | - | - | - |
| 1787792303 | 17.22° C | 97% | 1015.8 hPa | 0 mm | - | - | - |
| 1787791703 | 17.22° C | 97% | 1015.9 hPa | 0 mm | - | - | - |
| 1787791103 | 17.22° C | 97% | 1015.8 hPa | 0 mm | - | - | - |
| 1787790502 | 17.22° C | 97% | 1015.9 hPa | 0 mm | - | - | - |
| 1787789902 | 17.22° C | 97% | 1016.1 hPa | 0 mm | - | - | - |
| 1787789301 | 17.22° C | 96% | 1016.3 hPa | 0 mm | - | - | - |
| 1787788701 | 17.78° C | 97% | 1016.2 hPa | 0 mm | - | - | - |
* Rain since midnight (hover to see other rain measurements)
** Current wind speed in m/s (hover to see current wind gust speed)